When you browse on this site, cookies collect data to enhance your experience and personalize the content and advertising you see.
Visit our Privacy Policy to learn more. By continuing to use the site, you agree to this use of cookies and data.
  • In United Kingdom
  • List of Countries
  • For 7 days
  • Water Temperature
  • Weather Map
  • Weather Widgets
  • user-avatar
    Login

    Hourly Weather Sucre

    Today, 27 January, Monday

    Time Temperature Precipitation Wind Pressure Humidity
    00:00 +15°C° 0 mm 1 mps 543 mmHg 57%
    01:00 +15°C° 0 mm 1 mps 542 mmHg 60%
    02:00 +14°C° 0 mm 1 mps 542 mmHg 63%
    03:00 +14°C° 0 mm 1 mps 541 mmHg 65%
    04:00 +13°C° 0 mm 1 mps 541 mmHg 67%
    05:00 +13°C° 0 mm 1 mps 541 mmHg 68%
    06:00 +14°C° 0 mm 1 mps 542 mmHg 65%
    07:00 +14°C° 0 mm 1 mps 542 mmHg 62%
    08:00 +15°C° 0 mm 1 mps 543 mmHg 59%
    09:00 +16°C° 0 mm 1 mps 544 mmHg 57%
    10:00 +18°C° 0 mm 2 mps 544 mmHg 54%
    11:00 +19°C° 0 mm 3 mps 544 mmHg 52%
    12:00 +19°C° 0.5 mm 3 mps 544 mmHg 53%
    13:00 +19°C° 0.5 mm 4 mps 544 mmHg 54%
    14:00 +19°C° 0.5 mm 5 mps 543 mmHg 55%
    15:00 +19°C° 0.9 mm 5 mps 543 mmHg 59%
    16:00 +17°C° 0.9 mm 5 mps 542 mmHg 62%
    17:00 +16°C° 0.9 mm 5 mps 542 mmHg 65%
    18:00 +17°C° 0.8 mm 4 mps 542 mmHg 68%
    19:00 +16°C° 0.8 mm 3 mps 542 mmHg 72%
    20:00 +15°C° 0.8 mm 1 mps 542 mmHg 75%
    21:00 +15°C° 1 mm 1 mps 542 mmHg 78%
    22:00 +14°C° 1 mm 1 mps 542 mmHg 81%
    23:00 +14°C° 1 mm 1 mps 543 mmHg 83%

    Tomorrow, 28 January, Tuesday

    Time Temperature Precipitation Wind Pressure Humidity
    00:00 +14°C° 0.2 mm 1 mps 542 mmHg 83%
    01:00 +14°C° 0.2 mm 1 mps 542 mmHg 84%
    02:00 +13°C° 0.2 mm 1 mps 541 mmHg 84%
    03:00 +13°C° 0.1 mm 1 mps 541 mmHg 85%
    04:00 +13°C° 0.1 mm 1 mps 541 mmHg 85%
    05:00 +13°C° 0.1 mm 1 mps 541 mmHg 86%
    06:00 +13°C° 0.2 mm 1 mps 541 mmHg 85%
    07:00 +14°C° 0.2 mm 1 mps 541 mmHg 84%
    08:00 +14°C° 0.2 mm 1 mps 542 mmHg 83%
    09:00 +15°C° 0.4 mm 2 mps 542 mmHg 77%
    10:00 +16°C° 0.4 mm 3 mps 542 mmHg 72%
    11:00 +18°C° 0.4 mm 3 mps 543 mmHg 66%
    12:00 +18°C° 0.2 mm 3 mps 542 mmHg 63%
    13:00 +19°C° 0.2 mm 4 mps 542 mmHg 61%
    14:00 +20°C° 0.2 mm 4 mps 541 mmHg 58%
    15:00 +20°C° 0.4 mm 4 mps 541 mmHg 60%
    16:00 +19°C° 0.4 mm 4 mps 540 mmHg 62%
    17:00 +19°C° 0.4 mm 4 mps 539 mmHg 63%
    18:00 +18°C° 1 mm 3 mps 539 mmHg 69%
    19:00 +17°C° 1 mm 3 mps 539 mmHg 75%
    20:00 +16°C° 1 mm 2 mps 539 mmHg 80%
    21:00 +16°C° 0.6 mm 3 mps 539 mmHg 82%
    22:00 +14°C° 0.6 mm 3 mps 540 mmHg 84%
    23:00 +14°C° 0.6 mm 3 mps 540 mmHg 85%

    Day after tomorrow, 29 January, Wednesday

    Time Temperature Precipitation Wind Pressure Humidity
    00:00 +14°C° 0 mm 2 mps 539 mmHg 87%
    01:00 +14°C° 0 mm 1 mps 539 mmHg 88%
    02:00 +14°C° 0 mm 1 mps 538 mmHg 89%
    03:00 +13°C° 0 mm 1 mps 538 mmHg 90%
    04:00 +13°C° 0 mm 1 mps 538 mmHg 91%
    05:00 +13°C° 0 mm 1 mps 538 mmHg 92%
    06:00 +13°C° 0 mm 1 mps 538 mmHg 87%
    07:00 +13°C° 0 mm 0 mps 539 mmHg 81%
    08:00 +14°C° 0 mm 0 mps 540 mmHg 76%
    09:00 +18°C° 0.1 mm 1 mps 540 mmHg 68%
    10:00 +20°C° 0.1 mm 1 mps 541 mmHg 60%
    11:00 +21°C° 0.1 mm 1 mps 542 mmHg 52%
    12:00 +21°C° 0.2 mm 2 mps 542 mmHg 48%
    13:00 +24°C° 0.2 mm 2 mps 542 mmHg 43%
    14:00 +25°C° 0.2 mm 3 mps 542 mmHg 39%
    15:00 +23°C° 0.6 mm 4 mps 541 mmHg 42%
    16:00 +23°C° 0.6 mm 5 mps 541 mmHg 44%
    17:00 +22°C° 0.6 mm 6 mps 541 mmHg 47%
    18:00 +21°C° 1.3 mm 5 mps 540 mmHg 54%
    19:00 +19°C° 1.3 mm 3 mps 540 mmHg 62%
    20:00 +18°C° 1.3 mm 2 mps 540 mmHg 69%
    21:00 +17°C° 2.7 mm 2 mps 540 mmHg 73%
    22:00 +16°C° 2.7 mm 2 mps 540 mmHg 77%
    23:00 +15°C° 2.7 mm 2 mps 541 mmHg 81%

    30 January, Thursday

    Time Temperature Precipitation Wind Pressure Humidity
    00:00 +15°C° 2.9 mm 2 mps 540 mmHg 82%
    01:00 +14°C° 2.9 mm 2 mps 540 mmHg 83%
    02:00 +14°C° 2.9 mm 2 mps 539 mmHg 83%
    03:00 +14°C° 0.5 mm 2 mps 540 mmHg 82%
    04:00 +14°C° 0.5 mm 1 mps 540 mmHg 81%
    05:00 +14°C° 0.5 mm 1 mps 540 mmHg 80%
    06:00 +14°C° 1 mm 1 mps 540 mmHg 82%
    07:00 +13°C° 1 mm 1 mps 541 mmHg 85%
    08:00 +13°C° 1 mm 1 mps 541 mmHg 88%
    09:00 +13°C° 3.6 mm 1 mps 541 mmHg 88%
    10:00 +13°C° 3.6 mm 1 mps 541 mmHg 89%
    11:00 +12°C° 3.6 mm 1 mps 541 mmHg 90%
    12:00 +12°C° 2.2 mm 1 mps 541 mmHg 89%
    13:00 +12°C° 2.2 mm 1 mps 540 mmHg 88%
    14:00 +12°C° 2.2 mm 1 mps 540 mmHg 87%
    15:00 +12°C° 0.4 mm 1 mps 540 mmHg 87%
    16:00 +12°C° 0.4 mm 1 mps 540 mmHg 87%
    17:00 +12°C° 0.4 mm 1 mps 539 mmHg 87%
    18:00 +12°C° 0 mm 1 mps 540 mmHg 87%
    19:00 +12°C° 0 mm 1 mps 540 mmHg 87%
    20:00 +12°C° 0 mm 1 mps 541 mmHg 87%
    21:00 +12°C° 0 mm 1 mps 541 mmHg 88%
    22:00 +12°C° 0 mm 1 mps 541 mmHg 90%
    23:00 +12°C° 0 mm 2 mps 541 mmHg 92%

    31 January, Friday

    Time Temperature Precipitation Wind Pressure Humidity
    00:00 +12°C° 0 mm 1 mps 541 mmHg 92%
    01:00 +11°C° 0 mm 1 mps 540 mmHg 93%
    02:00 +10°C° 0 mm 0 mps 540 mmHg 93%
    03:00 +10°C° 0 mm 0 mps 540 mmHg 92%
    04:00 +10°C° 0 mm 0 mps 540 mmHg 92%
    05:00 +10°C° 0 mm 0 mps 540 mmHg 91%
    06:00 +11°C° 0 mm 0 mps 540 mmHg 88%
    07:00 +11°C° 0 mm 0 mps 541 mmHg 84%
    08:00 +12°C° 0 mm 0 mps 541 mmHg 81%
    09:00 +14°C° 0.1 mm 1 mps 542 mmHg 77%
    10:00 +15°C° 0.1 mm 2 mps 542 mmHg 72%
    11:00 +17°C° 0.1 mm 2 mps 543 mmHg 68%
    12:00 +17°C° 0.3 mm 2 mps 543 mmHg 65%
    13:00 +18°C° 0.3 mm 3 mps 543 mmHg 63%
    14:00 +19°C° 0.3 mm 3 mps 542 mmHg 61%
    15:00 +19°C° 0.4 mm 3 mps 542 mmHg 63%
    16:00 +18°C° 0.4 mm 4 mps 541 mmHg 65%
    17:00 +18°C° 0.4 mm 4 mps 541 mmHg 67%
    18:00 +17°C° 0.3 mm 3 mps 541 mmHg 71%
    19:00 +16°C° 0.3 mm 3 mps 541 mmHg 75%
    20:00 +15°C° 0.3 mm 2 mps 541 mmHg 79%
    21:00 +15°C° 0.1 mm 2 mps 542 mmHg 80%
    22:00 +15°C° 0.1 mm 2 mps 542 mmHg 80%
    23:00 +14°C° 0.1 mm 2 mps 542 mmHg 81%

    1 February, Saturday

    Time Temperature Precipitation Wind Pressure Humidity
    00:00 +14°C° 0.2 mm 2 mps 542 mmHg 82%
    01:00 +14°C° 0.2 mm 1 mps 541 mmHg 83%
    02:00 +13°C° 0.2 mm 1 mps 541 mmHg 85%
    03:00 +13°C° 0.1 mm 1 mps 541 mmHg 85%
    04:00 +13°C° 0.1 mm 1 mps 541 mmHg 85%
    05:00 +13°C° 0.1 mm 1 mps 541 mmHg 85%
    06:00 +13°C° 0 mm 1 mps 541 mmHg 85%
    07:00 +13°C° 0 mm 1 mps 541 mmHg 84%
    08:00 +14°C° 0 mm 1 mps 542 mmHg 83%
    09:00 +15°C° 0.1 mm 1 mps 542 mmHg 79%
    10:00 +16°C° 0.1 mm 1 mps 542 mmHg 76%
    11:00 +16°C° 0.1 mm 2 mps 543 mmHg 72%
    12:00 +18°C° 0.2 mm 2 mps 542 mmHg 67%
    13:00 +19°C° 0.2 mm 2 mps 542 mmHg 61%
    14:00 +20°C° 0.2 mm 3 mps 542 mmHg 56%
    15:00 +20°C° 0.1 mm 3 mps 542 mmHg 57%
    16:00 +21°C° 0.1 mm 3 mps 541 mmHg 57%
    17:00 +21°C° 0.1 mm 4 mps 541 mmHg 57%
    18:00 +20°C° 0.2 mm 3 mps 541 mmHg 63%
    19:00 +18°C° 0.2 mm 2 mps 540 mmHg 69%
    20:00 +17°C° 0.2 mm 2 mps 540 mmHg 75%
    21:00 +17°C° 0.2 mm 2 mps 540 mmHg 78%
    22:00 +16°C° 0.2 mm 2 mps 540 mmHg 81%
    23:00 +16°C° 0.2 mm 2 mps 540 mmHg 83%
    Show more